Погода в Олекминске

Погода в Олекминске : погода сейчас, прогноз погоды и архив. Всё, что Вы хотите узнать о погоде в Олекминске!

Хотите узнать прогноз погоды в Олекминске? Тогда Вам сюда: Погода в Олекминске

Поиск расширенной информации на нашем сайте:

Другие новости

Новости СМИ2

Главная страница сайта

Новости сайта

03.07.2017

Напоминаем, что на нашем специализированном сайте Метеоцентр.Азия вы можете получить высокодетализированные автоматические прогнозы погоды по пунктам России, СНГ и мира в авиационном формате (включающие направление и скорость ветра, видимость, явления погоды, количество и форму облачности, нижнюю и верхнюю границу облачности).

Рекомендуем: ремонт iphone 3gs

Погода в Олекминске - сегодня

Время (UTC), дата Ветер
(°,м/с) 
Видим.   Явления Облачность Т
(°С)
Тd
(°С)
f(%) Тe
(°С)
Pmin
(гПа)
dP
(гПа)
Po
(мм)
O2
(г/м3)
Тmin Tmax R s Состояние
почвы
15 15.04.18 250 (З) 20000 м    10/0 средняя, верхняя 
[Ac trans|Ci sp]
+3.7 -2.9 62 +3  995.2  -0.2  726  289           
03 16.04.18 300 (СЗ) 5{12}  20000 м    10/4 600 м верхняя 
[Cu hum|Ci fib]
+1.9 -10.5 39 -1  1006.5  734  294           
06 16.04.18 320 (СЗ) 5{11}  20000 м    10/4 600 м верхняя 
[Cu hum|Ci fib]
+3.3 -12.9 29 +1  1006.3  734  293           
09 16.04.18 290 (З) 20000 м    10/5 600 м верхняя 
[Sc|Ci fib]
+3.7 -13.3 28 +2  1006.8  0.5  734  293           
12 16.04.18 320 (СЗ) 20000 м    10/3 600 м верхняя 
[Sc|Ci fib]
+1.4 -13.1 33 +2  1008.4  1.4  735  296    +4.2       
15 16.04.18 250 (З) 20000 м    10/0 верхняя 
[Ci fib]
-4.5 -10.1 65 -6  1009.2  0.1  735  302           
18 16.04.18 250 (З) 20000 м    10/0 верхняя 
[Ci fib]
-5.9 -11 67 -7  1009.2  735  304           
21 16.04.18 240 (ЮЗ) 20000 м    10/0 верхняя 
[Ci fib]
-8 -10.2 84 -8  1009.5  0.1  735  306           
03 17.04.18 250 (З) 20000 м    8/4 600 м верхняя 
[Cu hum|Ci fib]
+2.7 -5.6 54 +1  1007.9  -0.8  735  294           
06 17.04.18 250 (З) 20000 м    10/6 600 м верхняя 
[Sc|Ci fib]
+4.5 -5.1 50 +3  1006.4  -1.3  734  291           
09 17.04.18 240 (ЮЗ) 20000 м    10/5 600 м средняя, верхняя 
[Sc|Ac trans|Ci fib]
+5.6 -5.5 45 +5  1005.6  -0.6  733  290           
12 17.04.18 тихо ()   20000 м    10/3 600 м верхняя 
[Sc|Ci fib]
+0.5 -6.9 58 +1  1005.5  -0.6  733  295    +6.4       
15 17.04.18 нст () 20000 м    10/3 1000 м верхняя 
[Sc|Ci fib]
-1.9 -5.7 75 -1  1004.9  -0.8  732  298           
18 17.04.18 040 (СВ) 20000 м    10/0 верхняя 
[Ci fib]
-3.5 -6.7 78 -3  1004  -1.1  731  299           
21 17.04.18 тихо ()   20000 м    10/3 1000 м средняя, верхняя 
[Sc|Ac trans|Ci fib]
-3.6 -6.8 78 -4  1003.2  -0.8  731  299           
03 18.04.18 210 (ЮЗ) 20000 м    10/0 верхняя 
[Ci fib]
+9.3 -4.7 37 +9  999.4  -1.6  729  285           
06 18.04.18 210 (ЮЗ) 20000 м    10/3 1000 м средняя, верхняя 
[Cu hum|Ac trans|Ci sp]
+11.1 -5.2 31 +10  997.8  -1.4  728  282           
09 18.04.18 200 (Ю) 20000 м    10/3 1000 м средняя, верхняя 
[Sc|Ac trans|Ci sp]
+11.6 -4.3 33 +11  996.1  -1.5  727  281           
21 18.04.18 260 (З) 6{13}  20000 м    10/4 600 м средняя 
[Sc|Ac trans]
-1.7 -6.5 70 -5  1005.5  2.4  733  298           
00 19.04.18 240 (ЮЗ) 6{12}  20000 м    10/6 1200 м средняя 
[Sc|Ac trans]
-1.4 -5.8 72 -5  1007.3  0.7  734  298  -1.8      40  равномерный
мокрый или
старый снег
100% 
03 19.04.18 240 (ЮЗ) 6{11}  20000 м    10/6 1000 м средняя, верхняя 
[Sc|Ac trans|Ci fib]
+1.6 -5 61 -2  1008.3  1.2  735  295           
06 19.04.18 240 (ЮЗ) 7{13}  20000 м    8/4 1000 м верхняя 
[Cu med, cong|Ci fib]
+3 -6.6 49 1007.8  -0.3  735  293           
09 19.04.18 240 (ЮЗ) 6{12}  20000 м    8/1 1000 м верхняя 
[Cu hum|Ci fib]
+3.7 -6.8 46 +1  1008.2  0.6  735  293           
12 19.04.18 270 (З) 3{10}  20000 м    10/0 средняя, верхняя 
[Ac trans|Ci fib]
+0.5 -8.2 52 -1  1009.8  1.2  736  297    +4.7       
15 19.04.18 230 (ЮЗ) 20000 м    10/0 верхняя 
[Ci fib]
-2.6 -8.2 65 -4  1011.8  1.4  737  301           
Время (UTC), дата Ветер
(°,м/с) 
Видим.   Явления Облачность Т
(°С)
Тd
(°С)
f(%) Тe
(°С)
Pmin
(гПа)
dP
(гПа)
Po
(мм)
O2
(г/м3)
Тmin Tmax R s Состояние
почвы

Для получения пояснительной информации подведите курсор к названию столбца.

ПОГОДА в Олекминске - архив

Всё, что Вы хотите узнать о погоде в Олекминске - удобно и подробно!

Выберите нужную дату (начиная с 1 января 2015* года) и нажмите кнопку "Найти".
Будут отображены архивные сводки погоды по пункту Олекминск, начиная с указанной даты.


Отображать данные в формате CSV (для использования в таблицах Excel)


Внимание! Наш архив погоды предназначен исключительно для личного некоммерческого использования в познавательных целях. Если Вам необходимы официальные справки о состоянии погоды (для производственных, юридических, коммерческих и т.п. целей), обращайтесь в органы Росгидромета.

*Примечание: данная дата относится к архиву по метеостанциям СССР (Россия, СНГ, Балтия).
Архив по метеостанциям Зарубежной Европы и Азии (кроме Китая) хранится 10 дней, по другим регионам земного шара (Китай, Африка, Америка, Австралия, Океания) - 1 день.

Олекминск - район местоположения метеостанции


Название, широта, долгота, высота метеостанции:
Олекминск 60.4°ш. 120.4°д. 226 м над ур. моря [Российская Федерация]

Дополнительная информация

В oтличие oт бoльшинства пoгoдных сайтoв мы публикуем пoдрoбную метеoинфoрмацию в детальнoм прoфессиoнальнoм фoрмате.

Характеристики температуры и влажнoсти вoздуха измеряются на высoте 2 м в тени вдали oт зданий и деревьев.
Скoрoсть ветра измеряется на высoте 10 м (на урoвне рoста челoвека скoрoсть ветра ниже в 1.5-2 раза). Если метеoстанция нахoдится в гoрoде или в лесу, тo скoрoсть ветра занижена на 2-4 м/с пo сравнению с oткрытым местoм. Скoрoсть ветра над акватoриями крупных рек и oзёр, а также на вершинах хoлмoв на 2-5 м/с выше, чем в oбычных услoвиях.
Атмoсфернoе давление в разных тoчках местнoсти мoжет значительнo oтличаться oт давления на метеoстанции, в зависимoсти oт услoвий рельефа (при пoдъёме на 10 м давление пoнижается примернo на 1 мм рт.ст.).